Location: Albany
(35.0170°S, 117.8920°E)
Time: 01:42:05
(UTC+08:00)

Explorer 7 - Pass Details

Date: 30 January 2021
Orbit: 484 x 677 km, 50.3° (Epoch: 01 March)

Event Time Altitude Azimuth Distance (km) Brightness Sun altitude
Rises 15:12:16 0° 273° (W) 3,038 11.3 48.4°
Reaches altitude 10° 15:15:02 10° 259° (W) 2,128 10.6 47.8°
Maximum altitude 15:19:03 24° 205° (SSW) 1,396 9.3 47.0°
Drops below altitude 10° 15:23:01 10° 150° (SSE) 2,102 9.6 46.2°
Sets 15:25:45 0° 136° (SE) 2,993 10.2 45.7°
